Location: Andiroba
(19.8650°S, 43.9258°W)
Time: 01:14:44
(UTC+00:00)

Cosmos 482 Debris - Pass Details

Date: 15 June 2024
Orbit: 185 x 1113 km, 52.0° (Epoch: 24 July)

Event Time Altitude Azimuth Distance (km) Brightness Sun altitude
Exits shadow 07:48:47 79° 274° (W) 586 4.2 -22.7°
Maximum altitude 07:48:55 81° 306° (NW) 579 4.2 -22.6°
Drops below altitude 10° 07:52:31 10° 34° (NE) 1,592 7.4 -21.8°
Sets 07:54:18 0° 35° (NE) 2,316 8.4 -21.4°
